GW2980 Weather Reports


time (UTC)temp
F
wind
direction
speed
knots
gust
knots
rain 1hr
in
rain 24hr
in
rain mn
in
humidity
%
barometer
mb
20260508161836 64 0.0 0.0 0.00 0.00 0.00 57 944.0
20260508161535 64 0.0 0.0 0.00 0.00 0.00 57 944.0
20260508161235 64 0.0 0.0 0.00 0.00 0.00 57 944.0
20260508160936 64 0.0 0.0 0.00 0.00 0.00 57 944.0
20260508160636 64 0.0 0.0 0.00 0.00 0.00 57 944.0
20260508160335 64 0.0 0.0 0.00 0.00 0.00 57 944.0
20260508160036 64 0.0 0.0 0.00 0.00 0.00 57 944.0
20260508155735 64 0.0 0.0 0.00 0.00 0.00 57 944.0
20260508155436 63 0.0 0.0 0.00 0.00 0.00 57 944.0
20260508155136 63 0.0 0.0 0.00 0.00 0.00 57 944.0
20260508154835 63 0.0 0.0 0.00 0.00 0.00 57 944.0
20260508154236 63 0.0 0.0 0.00 0.00 0.00 56 944.7
20260508153636 64 0.0 0.0 0.00 0.00 0.00 57 944.0
20260508152436 64 0.0 0.0 0.00 0.00 0.00 57 944.0
20260508152136 64 0.0 0.0 0.00 0.00 0.00 57 944.0
20260508151836 64 0.0 0.0 0.00 0.00 0.00 57 944.0
20260508151536 64 0.0 0.0 0.00 0.00 0.00 57 944.0
20260508151235 64 0.0 0.0 0.00 0.00 0.00 57 944.0
20260508150935 64 0.0 0.0 0.00 0.00 0.00 57 944.0
20260508150636 64 0.0 0.0 0.00 0.00 0.00 57 944.0
20260508150335 64 0.0 0.0 0.00 0.00 0.00 57 944.0
20260508150036 63 0.0 0.0 0.00 0.00 0.00 57 945.0
20260508145736 63 0.0 0.0 0.00 0.00 0.00 57 945.0
20260508145436 63 0.0 0.0 0.00 0.00 0.00 57 945.0
20260508145136 63 0.0 0.0 0.00 0.00 0.00 57 945.0
20260508144536 63 0.0 0.0 0.00 0.00 0.00 57 945.0
20260508144236 63 0.0 0.0 0.00 0.00 0.00 56 945.0
20260508143936 63 0.0 0.0 0.00 0.00 0.00 56 945.0
20260508143635 63 0.0 0.0 0.00 0.00 0.00 56 945.0
20260508143335 63 0.0 0.0 0.00 0.00 0.00 56 945.0
20260508143036 63 0.0 0.0 0.00 0.00 0.00 56 945.0
20260508142735 63 0.0 0.0 0.00 0.00 0.00 56 945.0
20260508142436 63 0.0 0.0 0.00 0.00 0.00 56 945.0
20260508142135 63 0.0 0.0 0.00 0.00 0.00 56 945.0
20260508141836 63 0.0 0.0 0.00 0.00 0.00 56 945.0
20260508141536 64 0.0 0.0 0.00 0.00 0.00 58 945.0
20260508141236 64 0.0 0.0 0.00 0.00 0.00 58 945.0
20260508140936 64 0.0 0.0 0.00 0.00 0.00 58 945.0
20260508140636 64 0.0 0.0 0.00 0.00 0.00 58 945.0
20260508140036 64 0.0 0.0 0.00 0.00 0.00 58 945.0
20260508135436 63 0.0 0.0 0.00 0.00 0.00 60 944.0
20260508135136 64 0.0 0.0 0.00 0.00 0.00 62 944.9
20260508134836 64 0.0 0.0 0.00 0.00 0.00 62 944.9
20260508134536 63 0.0 0.0 0.00 0.00 0.00 62 945.0
20260508134235 63 0.0 0.0 0.00 0.00 0.00 62 945.0
20260508133636 63 0.0 0.0 0.00 0.00 0.00 62 945.0
20260508133336 63 0.0 0.0 0.00 0.00 0.00 62 945.0
20260508133036 63 0.0 0.0 0.00 0.00 0.00 62 945.0
20260508132736 62 0.0 0.0 0.00 0.00 0.00 62 945.0
20260508132436 61 0.0 0.0 0.00 0.00 0.00 63 945.0
20260508131235 61 0.0 0.0 0.00 0.00 0.00 63 945.0
20260508130936 60 0.0 0.0 0.00 0.00 0.00 65 945.0
20260508130636 60 0.0 0.0 0.00 0.00 0.00 65 945.0
20260508125736 60 0.0 0.0 0.00 0.00 0.00 71 946.0
20260508125436 61 0.0 0.0 0.00 0.00 0.00 69 946.0
20260508125135 62 0.0 0.0 0.00 0.00 0.00 63 946.2
20260508124536 62 0.0 0.0 0.00 0.00 0.00 58 945.0
20260508124235 62 0.0 0.0 0.00 0.00 0.00 58 945.0
20260508123936 62 0.0 0.0 0.00 0.00 0.00 58 945.0
20260508123636 61 0.0 0.0 0.00 0.00 0.00 57 945.0
20260508123035 61 0.0 0.0 0.00 0.00 0.00 57 945.0
20260508122735 61 0.0 0.0 0.00 0.00 0.00 57 945.0
20260508122436 62 0.0 0.0 0.00 0.00 0.00 55 945.0
20260508122136 63 0.0 0.0 0.00 0.00 0.00 54 945.0
20260508121835 64 0.0 0.0 0.00 0.00 0.00 55 945.0
20260508121235 63 0.0 0.0 0.00 0.00 0.00 56 945.0
20260508120936 63 0.0 0.0 0.00 0.00 0.00 56 945.0
20260508120636 62 0.0 0.0 0.00 0.00 0.00 55 945.0
20260508120336 63 0.0 0.0 0.00 0.00 0.00 54 945.7
20260508120036 63 0.0 0.0 0.00 0.00 0.00 54 945.7
20260508115735 64 0.0 0.0 0.00 0.00 0.00 56 945.0
20260508115436 64 0.0 0.0 0.00 0.00 0.00 56 945.0
20260508115136 64 0.0 0.0 0.00 0.00 0.00 58 946.0
20260508114836 64 0.0 0.0 0.00 0.00 0.00 58 946.0
20260508114235 63 0.0 0.0 0.00 0.00 0.00 57 946.0
20260508113935 63 0.0 0.0 0.00 0.00 0.00 57 946.0
20260508113636 64 0.0 0.0 0.00 0.00 0.00 59 946.0
20260508113036 64 0.0 0.0 0.00 0.00 0.00 59 946.0
20260508112736 63 0.0 0.0 0.00 0.00 0.00 61 946.0
20260508112435 63 0.0 0.0 0.00 0.00 0.00 61 946.0
20260508112135 62 0.0 0.0 0.00 0.00 0.00 63 946.0
20260508111836 62 0.0 0.0 0.00 0.00 0.00 63 946.0
20260508111536 61 0.0 0.0 0.00 0.00 0.00 64 946.0
20260508111235 60 0.0 0.0 0.00 0.00 0.00 67 946.0
20260508110636 57 0.0 0.0 0.00 0.00 0.00 69 946.6
20260508110336 57 0.0 0.0 0.00 0.00 0.00 69 946.0
20260508110036 56 0.0 0.0 0.00 0.00 0.00 69 946.0
20260508105735 56 0.0 0.0 0.00 0.00 0.00 69 946.0
20260508105136 56 0.0 0.0 0.00 0.00 0.00 69 946.0
20260508104836 57 0.0 0.0 0.00 0.00 0.00 67 946.0
20260508104236 59 0.0 0.0 0.00 0.00 0.00 66 947.0
20260508103935 59 0.0 0.0 0.00 0.00 0.00 66 947.0
20260508103636 59 0.0 0.0 0.00 0.00 0.00 66 947.0
20260508103335 60 0.0 0.0 0.00 0.00 0.00 65 946.0
20260508102735 60 0.0 0.0 0.00 0.00 0.00 65 946.0
20260508102436 61 0.0 0.0 0.00 0.00 0.00 62 946.0
20260508102136 61 0.0 0.0 0.00 0.00 0.00 62 946.0
20260508101836 61 0.0 0.0 0.00 0.00 0.00 62 946.0
20260508101535 61 0.0 0.0 0.00 0.00 0.00 62 946.7
20260508101236 62 0.0 0.0 0.00 0.00 0.00 61 946.0
20260508100935 63 0.0 0.0 0.00 0.00 0.00 60 946.0
20260508100636 63 0.0 0.0 0.00 0.00 0.00 60 946.0
20260508100336 63 0.0 0.0 0.00 0.00 0.00 60 946.0
20260508100036 63 0.0 0.0 0.00 0.00 0.00 60 946.0
20260508095735 63 0.0 0.0 0.00 0.00 0.00 60 946.0
20260508095436 63 0.0 0.0 0.00 0.00 0.00 59 946.0
20260508095136 63 0.0 0.0 0.00 0.00 0.00 59 946.0
20260508094836 61 0.0 0.0 0.00 0.00 0.00 61 946.0
20260508094535 62 0.0 0.0 0.00 0.00 0.00 59 946.0
20260508094236 63 0.0 0.0 0.00 0.00 0.00 59 946.0
20260508093935 63 0.0 0.0 0.00 0.00 0.00 59 946.0
20260508093636 63 0.0 0.0 0.00 0.00 0.00 59 946.0
20260508093335 63 0.0 0.0 0.00 0.00 0.00 59 946.0
20260508093036 63 0.0 0.0 0.00 0.00 0.00 59 946.0
20260508092736 61 0.0 0.0 0.00 0.00 0.00 61 946.0
20260508092436 61 0.0 0.0 0.00 0.00 0.00 61 946.0
20260508092135 60 0.0 0.0 0.00 0.00 0.00 62 946.0
20260508091536 59 0.0 0.0 0.00 0.00 0.00 62 946.2
20260508091236 58 0.0 0.0 0.00 0.00 0.00 64 946.0
20260508090336 58 0.0 0.0 0.00 0.00 0.00 64 946.0
20260508090035 57 0.0 0.0 0.00 0.00 0.00 66 946.0
20260508085435 57 0.0 0.0 0.00 0.00 0.00 67 946.0
20260508085135 57 0.0 0.0 0.00 0.00 0.00 67 946.0
20260508084836 56 0.0 0.0 0.00 0.00 0.00 68 946.0
20260508084536 56 0.0 0.0 0.00 0.00 0.00 68 946.0
20260508084236 56 0.0 0.0 0.00 0.00 0.00 68 946.0
20260508083935 55 0.0 0.0 0.00 0.00 0.00 70 946.0
20260508083635 55 0.0 0.0 0.00 0.00 0.00 70 946.0
20260508083335 55 0.0 0.0 0.00 0.00 0.00 70 946.0
20260508083035 55 0.0 0.0 0.00 0.00 0.00 70 946.0
20260508082736 54 0.0 0.0 0.00 0.00 0.00 71 946.1
20260508082436 54 0.0 0.0 0.00 0.00 0.00 71 946.1
20260508082136 54 0.0 0.0 0.00 0.00 0.00 71 946.1
20260508081836 54 0.0 0.0 0.00 0.00 0.00 71 946.0
20260508081536 53 0.0 0.0 0.00 0.00 0.00 73 946.0
20260508081236 53 0.0 0.0 0.00 0.00 0.00 73 946.0
20260508080936 53 0.0 0.0 0.00 0.00 0.00 73 946.0
20260508080635 52 0.0 0.0 0.00 0.00 0.00 74 946.0
20260508080336 52 0.0 0.0 0.00 0.00 0.00 74 946.0
20260508075736 52 0.0 0.0 0.00 0.00 0.00 74 946.0
20260508075436 52 0.0 0.0 0.00 0.00 0.00 74 946.0
20260508075135 52 0.0 0.0 0.00 0.00 0.00 74 946.0
20260508074835 52 0.0 0.0 0.00 0.00 0.00 74 946.0
20260508074536 52 0.0 0.0 0.00 0.00 0.00 74 946.0
20260508074236 52 0.0 0.0 0.00 0.00 0.00 74 946.0
20260508073936 52 0.0 0.0 0.00 0.00 0.00 74 946.0
20260508073336 52 0.0 0.0 0.00 0.00 0.00 74 946.0
20260508073036 52 0.0 0.0 0.00 0.00 0.00 74 946.2
20260508072735 52 0.0 0.0 0.00 0.00 0.00 74 946.2
20260508072435 51 0.0 0.0 0.00 0.00 0.00 75 946.0
20260508072136 51 0.0 0.0 0.00 0.00 0.00 75 946.0
20260508071835 51 0.0 0.0 0.00 0.00 0.00 75 946.0
20260508071536 51 0.0 0.0 0.00 0.00 0.00 75 946.0
20260508071236 51 0.0 0.0 0.00 0.00 0.00 75 946.0
20260508070936 52 0.0 0.0 0.00 0.00 0.00 73 946.0
20260508070635 52 0.0 0.0 0.00 0.00 0.00 73 946.0
20260508070336 52 0.0 0.0 0.00 0.00 0.00 73 946.0
20260508070035 52 0.0 0.0 0.00 0.00 0.00 73 946.0
20260508065736 52 0.0 0.0 0.00 0.00 0.00 73 946.0
20260508065437 52 0.0 0.0 0.00 0.00 0.00 73 946.0
20260508065136 52 0.0 0.0 0.00 0.00 0.00 73 946.0
20260508064536 51 0.0 0.0 0.00 0.00 0.00 74 945.9
20260508064236 51 0.0 0.0 0.00 0.00 0.00 74 945.9
20260508063936 51 0.0 0.0 0.00 0.00 0.00 74 945.9
20260508063636 51 0.0 0.0 0.00 0.00 0.00 74 945.9
20260508063036 51 0.0 0.0 0.00 0.00 0.00 74 945.9
20260508062735 51 0.0 0.0 0.00 0.00 0.00 73 945.0
20260508062435 51 0.0 0.0 0.00 0.00 0.00 73 945.0
20260508062135 51 0.0 0.0 0.00 0.00 0.00 73 945.0
20260508061835 51 0.0 0.0 0.00 0.00 0.00 73 945.0
20260508061535 51 0.0 0.0 0.00 0.00 0.00 73 945.0
20260508061235 51 0.0 0.0 0.00 0.00 0.00 73 945.0
20260508060936 51 0.0 0.0 0.00 0.00 0.00 73 945.0
20260508060635 51 0.0 0.0 0.00 0.00 0.00 73 945.0
20260508060336 51 0.0 0.0 0.00 0.00 0.00 73 945.0
20260508060036 51 0.0 0.0 0.00 0.00 0.00 73 945.0
20260508055735 51 0.0 0.0 0.00 0.00 0.00 73 945.0
20260508055436 51 0.0 0.0 0.00 0.00 0.00 73 945.0
20260508054836 51 0.0 0.0 0.00 0.00 0.00 73 946.1
20260508054535 51 0.0 0.0 0.00 0.00 0.00 73 946.1
20260508054236 51 0.0 0.0 0.00 0.00 0.00 73 946.1
20260508053936 51 0.0 0.0 0.00 0.00 0.00 73 946.1
20260508053635 51 0.0 0.0 0.00 0.00 0.00 73 946.1
20260508053336 51 0.0 0.0 0.00 0.00 0.00 74 946.0
20260508053036 51 0.0 0.0 0.00 0.00 0.00 74 946.0
20260508052736 50 0.0 0.0 0.00 0.00 0.00 75 946.0
20260508052436 50 0.0 0.0 0.00 0.00 0.00 75 946.0
20260508052136 50 0.0 0.0 0.00 0.00 0.00 75 946.0
20260508051835 50 0.0 0.0 0.00 0.00 0.00 75 946.0
20260508051535 50 0.0 0.0 0.00 0.00 0.00 75 946.0
20260508050936 50 0.0 0.0 0.00 0.00 0.00 75 945.9
20260508050636 50 0.0 0.0 0.00 0.00 0.00 75 945.9
20260508050336 50 0.0 0.0 0.00 0.00 0.00 75 945.9
20260508045135 50 0.0 0.0 0.00 0.00 0.00 75 945.9
20260508044836 50 0.0 0.0 0.00 0.00 0.00 75 945.9
20260508044536 50 0.0 0.0 0.00 0.00 0.00 75 945.9
20260508043636 51 0.0 0.0 0.00 0.00 0.00 74 945.0
20260508043336 51 0.0 0.0 0.00 0.00 0.00 74 945.0
20260508043036 51 0.0 0.0 0.00 0.00 0.00 73 945.8
20260508042735 51 0.0 0.0 0.00 0.00 0.00 73 945.8
20260508042136 51 0.0 0.0 0.00 0.00 0.00 73 945.8
20260508041835 51 0.0 0.0 0.00 0.00 0.00 73 945.8
20260508041536 51 0.0 0.0 0.00 0.00 0.00 73 945.8
20260508041236 51 0.0 0.0 0.00 0.00 0.00 73 945.8
20260508040936 51 0.0 0.0 0.00 0.00 0.00 73 945.8
20260508040636 51 0.0 0.0 0.00 0.00 0.00 73 945.8
20260508040036 51 0.0 0.0 0.00 0.00 0.00 73 945.8
20260508035735 51 0.0 0.0 0.00 0.00 0.00 73 945.8
20260508035436 51 0.0 0.0 0.00 0.00 0.00 73 945.8
20260508035136 51 0.0 0.0 0.00 0.00 0.00 73 945.8
20260508034536 51 0.0 0.0 0.00 0.00 0.00 73 945.8
20260508034236 52 0.0 0.0 0.00 0.00 0.00 73 945.6
20260508033935 52 0.0 0.0 0.00 0.00 0.00 73 945.6
20260508033636 52 0.0 0.0 0.00 0.00 0.00 73 945.6
20260508033336 52 0.0 0.0 0.00 0.00 0.00 73 945.6
20260508033036 52 0.0 0.0 0.00 0.00 0.00 73 945.6
20260508032435 52 0.0 0.0 0.00 0.00 0.00 73 945.6
20260508032136 52 0.0 0.0 0.00 0.00 0.00 73 945.6
20260508031835 52 0.0 0.0 0.00 0.00 0.00 73 945.6
20260508031236 52 0.0 0.0 0.00 0.00 0.00 73 945.6
20260508030636 52 0.0 0.0 0.00 0.00 0.00 73 945.6
20260508030336 52 0.0 0.0 0.00 0.00 0.00 73 945.6
20260508030036 52 0.0 0.0 0.00 0.00 0.00 73 945.6
20260508025436 52 0.0 0.0 0.00 0.00 0.00 73 945.6
20260508025136 52 0.0 0.0 0.00 0.00 0.00 73 945.6
20260508024536 52 0.0 0.0 0.00 0.00 0.00 73 945.0
20260508024236 52 0.0 0.0 0.00 0.00 0.00 73 945.0
20260508023935 52 0.0 0.0 0.00 0.00 0.00 73 945.0
20260508023636 52 0.0 0.0 0.00 0.00 0.00 73 945.0
20260508023336 53 0.0 0.0 0.00 0.00 0.00 71 945.0
20260508023036 53 0.0 0.0 0.00 0.00 0.00 71 945.0
20260508022735 53 0.0 0.0 0.00 0.00 0.00 71 945.0
20260508022136 53 0.0 0.0 0.00 0.00 0.00 71 945.0
20260508021836 53 0.0 0.0 0.00 0.00 0.00 71 945.0
20260508021536 53 0.0 0.0 0.00 0.00 0.00 71 945.0
20260508021236 53 0.0 0.0 0.00 0.00 0.00 71 945.0
20260508020936 53 0.0 0.0 0.00 0.00 0.00 71 945.8
20260508020636 53 0.0 0.0 0.00 0.00 0.00 71 945.8
20260508020336 53 0.0 0.0 0.00 0.00 0.00 71 945.8
20260508020036 53 0.0 0.0 0.00 0.00 0.00 71 945.8
20260508015735 53 0.0 0.0 0.00 0.00 0.00 70 945.0
20260508015436 53 0.0 0.0 0.00 0.00 0.00 70 945.0
20260508015135 53 0.0 0.0 0.00 0.00 0.00 70 945.0
20260508014836 53 0.0 0.0 0.00 0.00 0.00 70 945.0
20260508014536 53 0.0 0.0 0.00 0.00 0.00 70 945.0
20260508014235 53 0.0 0.0 0.00 0.00 0.00 70 945.0
20260508013936 53 0.0 0.0 0.00 0.00 0.00 70 945.0
20260508013636 53 0.0 0.0 0.00 0.00 0.00 70 946.0
20260508013336 53 0.0 0.0 0.00 0.00 0.00 70 946.0
20260508012736 53 0.0 0.0 0.00 0.00 0.00 70 946.0
20260508012436 54 0.0 0.0 0.00 0.00 0.00 68 946.0
20260508012136 54 0.0 0.0 0.00 0.00 0.00 68 946.0
20260508011835 54 0.0 0.0 0.00 0.00 0.00 68 946.0
20260508011535 54 0.0 0.0 0.00 0.00 0.00 68 946.0
20260508011236 54 0.0 0.0 0.00 0.00 0.00 68 946.0
20260508010935 54 0.0 0.0 0.00 0.00 0.00 68 946.4
20260508010636 54 0.0 0.0 0.00 0.00 0.00 68 946.4
20260508010036 55 0.0 0.0 0.00 0.00 0.00 67 946.0
20260508004836 55 0.0 0.0 0.00 0.00 0.00 67 946.0
20260508004236 55 0.0 0.0 0.00 0.00 0.00 67 946.0
20260508003936 55 0.0 0.0 0.00 0.00 0.00 67 946.0
20260508003636 55 0.0 0.0 0.00 0.00 0.00 67 946.0
20260508003335 55 0.0 0.0 0.00 0.00 0.00 67 946.0
20260508003035 55 0.0 0.0 0.00 0.00 0.00 67 946.0
20260508002735 55 0.0 0.0 0.00 0.00 0.00 67 946.0
20260508002435 55 0.0 0.0 0.00 0.00 0.00 67 946.0
20260508002136 55 0.0 0.0 0.00 0.00 0.00 67 946.6
20260508001536 55 0.0 0.0 0.00 0.00 0.00 67 946.6
20260508001236 55 0.0 0.0 0.00 0.00 0.00 67 946.6
20260508000636 56 0.0 0.0 0.00 0.00 0.00 67 946.0
20260508000336 56 0.0 0.0 0.00 0.00 0.00 67 946.0
20260508000036 55 0.0 0.0 0.00 0.00 0.00 69 946.9
20260507235736 55 0.0 0.0 0.00 0.00 0.00 69 946.9
20260507235435 55 0.0 0.0 0.00 0.00 0.00 69 946.9
20260507235135 55 0.0 0.0 0.00 0.00 0.00 69 946.9
20260507234536 55 0.0 0.0 0.00 0.00 0.00 69 946.9
20260507233635 55 0.0 0.0 0.00 0.00 0.00 69 946.9
20260507233335 55 0.0 0.0 0.00 0.00 0.00 69 946.9
20260507233036 55 0.0 0.0 0.00 0.00 0.00 69 946.9
20260507232735 55 0.0 0.0 0.00 0.00 0.00 69 946.9
20260507232436 55 0.0 0.0 0.00 0.00 0.00 69 946.9
20260507232136 55 0.0 0.0 0.00 0.00 0.00 69 946.9
20260507231836 55 0.0 0.0 0.00 0.00 0.00 69 946.9
20260507231535 55 0.0 0.0 0.00 0.00 0.00 69 946.9
20260507230936 55 0.0 0.0 0.00 0.00 0.00 69 947.0
20260507230635 55 0.0 0.0 0.00 0.00 0.00 69 947.0
20260507230336 55 0.0 0.0 0.00 0.00 0.00 69 947.0
20260507230035 55 0.0 0.0 0.00 0.00 0.00 69 947.0
20260507225736 55 0.0 0.0 0.00 0.00 0.00 69 947.0
20260507225436 55 0.0 0.0 0.00 0.00 0.00 69 947.0
20260507225136 55 0.0 0.0 0.00 0.00 0.00 69 947.0
20260507224836 55 0.0 0.0 0.00 0.00 0.00 69 947.0
20260507223936 56 0.0 0.0 0.00 0.00 0.00 66 947.0
20260507223636 56 0.0 0.0 0.00 0.00 0.00 66 947.0
20260507223336 56 0.0 0.0 0.00 0.00 0.00 66 947.0
20260507223035 56 0.0 0.0 0.00 0.00 0.00 66 947.0
20260507222736 57 0.0 0.0 0.00 0.00 0.00 65 947.0
20260507222436 57 0.0 0.0 0.00 0.00 0.00 65 947.0
20260507222136 57 0.0 0.0 0.00 0.00 0.00 65 947.0
20260507221536 58 0.0 0.0 0.00 0.00 0.00 64 947.0
20260507221235 58 0.0 0.0 0.00 0.00 0.00 64 947.0
20260507220936 58 0.0 0.0 0.00 0.00 0.00 64 947.0
20260507220635 58 0.0 0.0 0.00 0.00 0.00 64 947.0
20260507220336 58 0.0 0.0 0.00 0.00 0.00 64 947.0
20260507220036 58 0.0 0.0 0.00 0.00 0.00 64 947.0
20260507215736 58 0.0 0.0 0.00 0.00 0.00 64 947.0
20260507215136 57 0.0 0.0 0.00 0.00 0.00 66 947.0
20260507214836 57 0.0 0.0 0.00 0.00 0.00 66 947.0
20260507214536 57 0.0 0.0 0.00 0.00 0.00 66 947.0
20260507214235 57 0.0 0.0 0.00 0.00 0.00 66 947.0
20260507213936 57 0.0 0.0 0.00 0.00 0.00 66 947.0
20260507213636 57 0.0 0.0 0.00 0.00 0.00 66 947.0
20260507213336 57 0.0 0.0 0.00 0.00 0.00 66 947.0
20260507213036 57 0.0 0.0 0.00 0.00 0.00 66 947.1
20260507212735 57 0.0 0.0 0.00 0.00 0.00 66 947.1
20260507212436 57 0.0 0.0 0.00 0.00 0.00 66 947.1
20260507212136 57 0.0 0.0 0.00 0.00 0.00 66 947.1
20260507211536 57 0.0 0.0 0.00 0.00 0.00 66 947.0
20260507210636 57 0.0 0.0 0.00 0.00 0.00 66 947.0
20260507210336 57 0.0 0.0 0.00 0.00 0.00 66 947.0
20260507210036 57 0.0 0.0 0.00 0.00 0.00 66 947.0
20260507205735 57 0.0 0.0 0.00 0.00 0.00 65 946.0
20260507205436 57 0.0 0.0 0.00 0.00 0.00 65 946.0
20260507205135 59 0.0 0.0 0.00 0.00 0.00 62 946.7
20260507204836 59 0.0 0.0 0.00 0.00 0.00 62 946.7
20260507204536 59 0.0 0.0 0.00 0.00 0.00 62 946.7
20260507204236 59 0.0 0.0 0.00 0.00 0.00 62 946.7
20260507203936 59 0.0 0.0 0.00 0.00 0.00 62 946.7
20260507203336 59 0.0 0.0 0.00 0.00 0.00 62 946.7
20260507203036 59 0.0 0.0 0.00 0.00 0.00 62 946.7
20260507202736 59 0.0 0.0 0.00 0.00 0.00 62 946.7
20260507202436 59 0.0 0.0 0.00 0.00 0.00 62 946.7
20260507202136 59 0.0 0.0 0.00 0.00 0.00 62 946.7
20260507201836 58 0.0 0.0 0.00 0.00 0.00 63 946.0
20260507201235 58 0.0 0.0 0.00 0.00 0.00 63 946.0
20260507200935 58 0.0 0.0 0.00 0.00 0.00 63 946.0
20260507200636 58 0.0 0.0 0.00 0.00 0.00 63 946.0
20260507200335 58 0.0 0.0 0.00 0.00 0.00 63 946.0
20260507195735 59 0.0 0.0 0.00 0.00 0.00 62 946.0
20260507195435 59 0.0 0.0 0.00 0.00 0.00 62 946.0
20260507195135 59 0.0 0.0 0.00 0.00 0.00 62 946.0
20260507194836 59 0.0 0.0 0.00 0.00 0.00 62 946.0
20260507194536 60 0.0 0.0 0.00 0.00 0.00 60 946.0
20260507193936 60 0.0 0.0 0.00 0.00 0.00 60 946.0
20260507193635 61 0.0 0.0 0.00 0.00 0.00 57 946.4
20260507193335 61 0.0 0.0 0.00 0.00 0.00 57 946.4
20260507193036 61 0.0 0.0 0.00 0.00 0.00 57 946.4
20260507192736 61 0.0 0.0 0.00 0.00 0.00 57 946.4
20260507191836 61 0.0 0.0 0.00 0.00 0.00 54 946.0
20260507191536 61 0.0 0.0 0.00 0.00 0.00 54 945.0
20260507190936 61 0.0 0.0 0.00 0.00 0.00 54 945.0
20260507190636 61 0.0 0.0 0.00 0.00 0.00 54 945.0
20260507190336 61 0.0 0.0 0.00 0.00 0.00 54 945.0
20260507190035 61 0.0 0.0 0.00 0.00 0.00 54 945.0
20260507185735 61 0.0 0.0 0.00 0.00 0.00 54 945.0
20260507185436 61 0.0 0.0 0.00 0.00 0.00 54 945.0
20260507185136 61 0.0 0.0 0.00 0.00 0.00 54 945.0
20260507184835 61 0.0 0.0 0.00 0.00 0.00 54 945.0
20260507184536 61 0.0 0.0 0.00 0.00 0.00 54 945.0
20260507184235 61 0.0 0.0 0.00 0.00 0.00 54 945.6
20260507183935 61 0.0 0.0 0.00 0.00 0.00 54 945.6
20260507183636 61 0.0 0.0 0.00 0.00 0.00 54 945.6
20260507183336 61 0.0 0.0 0.00 0.00 0.00 54 945.0
20260507183036 61 0.0 0.0 0.00 0.00 0.00 54 945.0
20260507182436 61 0.0 0.0 0.00 0.00 0.00 53 945.0
20260507182136 61 0.0 0.0 0.00 0.00 0.00 53 945.0
20260507181835 62 0.0 0.0 0.00 0.00 0.00 52 945.0
20260507181536 62 0.0 0.0 0.00 0.00 0.00 52 945.0
20260507181235 62 0.0 0.0 0.00 0.00 0.00 52 945.0
20260507180935 62 0.0 0.0 0.00 0.00 0.00 52 945.0
20260507180635 63 0.0 0.0 0.00 0.00 0.00 51 945.0
20260507180336 63 0.0 0.0 0.00 0.00 0.00 51 945.0
20260507180036 63 0.0 0.0 0.00 0.00 0.00 51 945.0
20260507175736 63 0.0 0.0 0.00 0.00 0.00 51 945.0
20260507175436 63 0.0 0.0 0.00 0.00 0.00 51 945.0
20260507175136 63 0.0 0.0 0.00 0.00 0.00 46 945.0
20260507174536 63 0.0 0.0 0.00 0.00 0.00 46 945.0
20260507174236 63 0.0 0.0 0.00 0.00 0.00 46 945.0
20260507173936 63 0.0 0.0 0.00 0.00 0.00 47 944.0
20260507173336 63 0.0 0.0 0.00 0.00 0.00 47 944.0
20260507173035 63 0.0 0.0 0.00 0.00 0.00 47 944.0
20260507172736 63 0.0 0.0 0.00 0.00 0.00 47 944.0
20260507172436 63 0.0 0.0 0.00 0.00 0.00 47 944.0
20260507172135 63 0.0 0.0 0.00 0.00 0.00 47 944.0
20260507171836 63 0.0 0.0 0.00 0.00 0.00 47 944.0
20260507171535 64 0.0 0.0 0.00 0.00 0.00 47 944.0
20260507171236 64 0.0 0.0 0.00 0.00 0.00 47 944.0
20260507170935 64 0.0 0.0 0.00 0.00 0.00 47 944.0
20260507170635 64 0.0 0.0 0.00 0.00 0.00 47 944.0
20260507170336 64 0.0 0.0 0.00 0.00 0.00 47 944.0
20260507170036 65 0.0 0.0 0.00 0.00 0.00 47 944.9
20260507165736 65 0.0 0.0 0.00 0.00 0.00 47 944.9
20260507165436 65 0.0 0.0 0.00 0.00 0.00 47 944.9
20260507165136 65 0.0 0.0 0.00 0.00 0.00 47 944.9
20260507164835 64 0.0 0.0 0.00 0.00 0.00 49 944.0
20260507164536 64 0.0 0.0 0.00 0.00 0.00 49 944.0
20260507164236 64 0.0 0.0 0.00 0.00 0.00 49 944.0
20260507163936 64 0.0 0.0 0.00 0.00 0.00 49 944.0
20260507163636 64 0.0 0.0 0.00 0.00 0.00 49 944.0
20260507163336 64 0.0 0.0 0.00 0.00 0.00 49 944.0
20260507163036 64 0.0 0.0 0.00 0.00 0.00 49 944.0
20260507162735 64 0.0 0.0 0.00 0.00 0.00 49 944.0
20260507162435 64 0.0 0.0 0.00 0.00 0.00 49 944.0